Regional Weather Roundup
Issued by NWS State College, PA

Home | Current Version | Previous Version | Text Only | Print | Product List | Glossary On
Versions: 1 2 3 4 5 6 7 8 9 10 11 12 13 14 15 16 17 18 19 20 21 22 23 24 25 26 27 28 29 30 31 32 33 34 35 36 37 38 39 40 41 42 43 44 45 46 47 48 49 50
000
ASUS41 KCTP 301210
RWRCTP

REGIONAL WEATHER ROUNDUP
NATIONAL WEATHER SERVICE STATE COLLEGE PA
800 AM EDT TUE SEP 30 2014

Note: "fair" indicates few or no clouds below 12,000 feet with no
significant weather and/or obstructions to visibility.

* = STATION THAT DOES NOT REPORT PRECIPITATION /E.G. RAIN...SNOW...ETC/
    THUNDER OR FOG.

PAZ002>004-007>009-013>016-020>023-029>032-301300-
WESTERN PENNSYLVANIA

CITY           SKY/WX    TMP DP  RH WIND       PRES   REMARKS
ERIE           CLOUDY    60  52  74 S5        29.90R
MEADVILLE      MOCLDY    56  52  86 VRB3      29.90S
FRANKLIN*      MOCLDY    50  46  87 CALM      29.93R
NEW CASTLE     FOG       49  49 100 CALM      29.91S VSB<1/4
BEAVER COUNTY    N/A     54  54 100 S3        29.90S
BUTLER*        CLEAR     50  46  87 CALM      29.93R
PITTSBURGH INT PTCLDY    54  51  90 CALM      29.90R
PITTSBURGH     CLEAR     56  54  93 S7        29.91R FOG
INDIANA*       PTCLDY    54  52  94 CALM      29.96S
LATROBE        PTCLDY    54  54 100 CALM      29.93R
WASHINGTON CO* CLOUDY    48  46  93 CALM      29.93R VSB 1/4
$$

PAZ004>006-010>012-017>019-024>028-033>037-041-042-045-046-049>053-301300-
CENTRAL PENNSYLVANIA

CITY           SKY/WX    TMP DP  RH WIND       PRES   REMARKS
BRADFORD       FOG       46  45  96 CALM      29.94R VSB 1/2
DUBOIS         CLEAR     53  52  96 CALM      29.92R FOG
CLEARFIELD     FOG       49  49 100 CALM      29.94R VSB 1/4
JOHNSTOWN      CLEAR     58  54  86 SW8       29.95R
ALTOONA        MOCLDY    57  56  96 CALM      29.93S FOG
STATE COLLEGE  FOG       54  54 100 CALM      29.93R VSB 1/8
WILLIAMSPORT   FOG       58  56  93 CALM      29.92R VSB 1/2
SELINSGROVE    FOG       57  56  96 N3        29.94R VSB<1/4
FT INDIANTOWN  CLOUDY    61  61 100 NE2       29.94R FOG
CAPITAL CITY   CLOUDY    63  61  93 E5        29.93R FOG
HARRISBURG     FOG       61  60  97 E5        29.93R VSB 1/4
YORK           CLOUDY    60  59  96 E3        29.94R FOG
$$

PAZ038>040-043-044-047-048-054-055-060>062-067>071-301300-
EASTERN PENNSYLVANIA

CITY           SKY/WX    TMP DP  RH WIND       PRES   REMARKS
SCRANTON       SUNNY     59  55  87 E3        29.95R FOG
MOUNT POCONO   FOG       57  56  96 SW5       29.97R VSB<1/4
ALLENTOWN      FOG       61  59  93 CALM      29.95R VSB 1/4
QUAKERTOWN*    CLOUDY    59  59 100 CALM      29.96S VSB<1/4
READING        CLOUDY    62  60  93 CALM      29.94R FOG
LANCASTER      FOG       60  60 100 CALM      29.94R VSB<1/4
COATESVILLE    FOG       63  63 100 CALM      29.95S VSB<1/4
POTTSTOWN      FOG       59  59 100 NE3       29.96R VSB 1
BLUE BELL        N/A     61  61 100 CALM      29.94R
DOYLESTOWN     PTSUNNY   59  59 100 CALM      29.95R FOG
WILLOW GROVE   NOT AVBL
NORTH PHILA    CLOUDY    64  57  78 SE3       29.98R
PHILADELPHIA   CLOUDY    65  62  90 SE5       29.96R
$$


USA.gov is the U.S. government's official web portal to all federal, state and local government web resources and services.